Location: Krakow
(50.0830°N, 19.9170°E)
Time: 08:01:58
(UTC+02:00)

Tiros 1 despin weight - Pass Details

Date: 23 March 2026
Orbit: 555 x 592 km, 48.2° (Epoch: 18 April)

Event Time Altitude Azimuth Distance (km) Brightness Sun altitude
Rises 01:03:15 0° 200° (SSW) 2,811 - -36.4°
Reaches altitude 10° 01:06:15 10° 179° (S) 1,915 - -36.2°
Maximum altitude 01:08:56 16° 141° (SE) 1,564 - -36.0°
Drops below altitude 10° 01:11:37 10° 104° (ESE) 1,919 - -35.9°
Exits shadow 01:13:42 - 87° (E) 2,512 ? -35.7°
Sets 01:14:38 0° 82° (E) 2,820 ? -35.6°
